Погода в Дивном

Россия / Ставропольский край     45°54′42″N   43°20′34″E
темп.,
°C
ветер,
м/с
пор.,
м/с
влажн.,
%
обл.,
%
осадки,
мм/ч
давл.,
гПа
погр.,
м
18 мая, ср
ср1800:00+10зюз49890 0.0 1015166
03:00+9зюз489032 0.0 1014142
06:00+11юз488697 0.0 1015197
09:00+17юз4560100 0.0 1014854
12:00+20зюз4646100 0.1 10122063
15:00+20юз2346100 0.1 10111533
18:00+18св5662100 0.0 1010248
21:00+13ссв4791100 2.8 1013272
19 мая, чт
чт1900:00+12всв499474 0.1 1012332
03:00+11ссв479775 0.1 1013238
06:00+12в3693100 0.2 1014325
09:00+14юв1187100 0.8 1015185
12:00+17з886378 0.2 10161224
15:00+18з6855100 0.2 10161547
18:00+11зюз5893100 2.6 1017451
21:00+11юз5988100 7.0 1017482
20 мая, пт
пт2000:00+11зюз61185100 1.6 1016506
03:00+10зюз71287100 1.6 1016794
06:00+10зсз8129176 0.3 1017695
09:00+14сз81067100 0.7 10181245
12:00+17зсз8105258 0.9 10181757
15:00+16зсз596197 2.3 1018648
18:00+16зсз47666 0.6 1018323
21:00+12зсз33746 0.9 101942
21 мая, сб
сб2100:00+11з4484100 0.1 101860
03:00+9зюз499058 0.1 1017165
06:00+11зюз6128589 0.0 1017379
09:00+16зюз91362100 0.0 1015810
12:00+15зюз71470100 0.3 1013789
15:00+20зюз121657100 0.4 10101831
18:00+15зюз101870100 0.4 10091159
21:00+16зюз13224825 0.5 10081190
22 мая, вс
вс2200:00+14з13216798 0.9 10071169
03:00+9сз81187100 1.4 1010624
06:00+8ссз567855 0.3 1012492
09:00+11с11588 0.3 1012740
12:00+15зсз1146100 0.0 10101145
15:00+15зюз1153100 0.0 1009649
18:00+11всв2489100 3.4 1008235
21:00+10в4595100 9.9 1008327